Location: Bothwell
(42.3833°S, 147.0000°E)
Time: 02:58:10
(UTC+10:00)

CUTE-I - Pass Details

Date: 04 October 2022
Orbit: 809 x 822 km, 98.7° (Epoch: 20 September)

Event Time Altitude Azimuth Distance (km) Brightness Sun altitude
Rises 19:44:54 0° 168° (SSE) 3,400 ? -5.1°
Reaches altitude 10° 19:47:16 10° 169° (S) 2,461 ? -5.5°
Maximum altitude 19:52:44 79° 254° (WSW) 855 ? -6.5°
Drops below altitude 10° 19:58:08 10° 340° (NNW) 2,430 ? -7.5°
Sets 20:00:27 0° 341° (NNW) 3,354 ? -7.9°
